Rogers City, MI

4:47 PM EDT on September 20, 2017 (GMT -0400)
Presque Isle County

Weather History for KPZQ - May, 2014

Change the Weather History Date:

Friday, May 16, 2014

  Actual Average (KAPN) Record (KAPN)
Temperature  
Mean Temperature 40 °F -  
Max Temperature 46 °F 66 °F 94 °F (1962)
Min Temperature 33 °F 41 °F 26 °F (1957)
Degree Days  
Heating Degree Days 26    
Moisture  
Dew Point 34 °F    
Average Humidity 83    
Maximum Humidity 100    
Minimum Humidity 62    
Precipitation  
Precipitation 0.00 in - - ()
Sea Level Pressure  
Sea Level Pressure 29.97 in    
Wind  
Wind Speed 8 mph (WNW)    
Max Wind Speed 15 mph    
Max Gust Speed 23 mph    
Visibility 9 miles    
Events Rain , Snow    
Averages and records for this station are not official NWS values.
T = Trace of Precipitation, MM = Missing Value Source: NWS Daily Summary

Daily Weather History Graph

Daily Weather History Graph

Search for Another Location

Airport or City:

Trip Planner

Search our weather history database for the weather conditions in past years. The results will help you decide how hot, cold, wet, or windy it might be!

Date:

Astronomy

May. 16, 2014 Rise Set
Actual Time 6:03 AM EDT 9:00 PM EDT
Civil Twilight 5:29 AM EDT 9:34 PM EDT
Nautical Twilight 4:44 AM EDT 10:19 PM EDT
Astronomical Twilight 3:52 AM EDT 11:12 PM EDT
Moon 11:05 PM EDT (5/16) 7:44 AM EDT (5/16)
Length of Visible Light 16h 05m
Length of Day
14h 56m
Waning Gibbous, 95% of the Moon is Illuminated
May 16
Waning Gibbous
May 21
Last Quarter
May 28
New
Jun 5
First Quarter
Jun 13
Full

Hourly Weather History & Observations

Time (EDT) Temp. Windchill Dew Point Humidity Pressure Visibility Wind Dir Wind Speed Gust Speed Precip Events Conditions
12:15 AM 37.2 °F 33.6 °F 36.9 °F 99% 29.90 in 2.5 mi West 4.6 mph - N/A   Overcast
12:34 AM 36.9 °F 30.1 °F 36.7 °F 99% 29.90 in 3.0 mi West 9.2 mph - N/A   Overcast
12:55 AM 36.5 °F 30.3 °F 36.5 °F 100% 29.90 in 4.0 mi West 8.1 mph - N/A   Overcast
1:15 AM 36.1 °F 30.6 °F 35.8 °F 99% 29.90 in 10.0 mi West 6.9 mph - N/A   Overcast
1:34 AM 35.8 °F 30.1 °F 35.4 °F 99% 29.90 in 10.0 mi WNW 6.9 mph - N/A   Overcast
1:55 AM 35.6 °F 29.2 °F 35.2 °F 99% 29.90 in 7.0 mi WNW 8.1 mph - N/A   Overcast
2:15 AM 35.6 °F 29.9 °F 35.1 °F 98% 29.91 in 7.0 mi West 6.9 mph - N/A   Overcast
2:34 AM 35.1 °F 30.1 °F 34.7 °F 99% 29.90 in 5.0 mi West 5.8 mph - N/A   Overcast
2:55 AM 34.7 °F 28.1 °F 34.3 °F 99% 29.90 in 7.0 mi WNW 8.1 mph - N/A   Overcast
3:15 AM 34.7 °F 28.8 °F 34.2 °F 98% 29.90 in 10.0 mi West 6.9 mph - N/A   Overcast
3:35 AM 34.0 °F 27.2 °F 33.8 °F 99% 29.90 in 10.0 mi West 8.1 mph - N/A   Mostly Cloudy
3:55 AM 34.0 °F 28.8 °F 33.8 °F 99% 29.91 in 5.0 mi West 5.8 mph - N/A Rain Light Rain
4:14 AM 34.5 °F 29.4 °F 34.2 °F 99% 29.91 in 5.0 mi West 5.8 mph - N/A Rain Rain
4:35 AM 34.2 °F 28.2 °F 34.0 °F 99% 29.92 in 4.0 mi West 6.9 mph - N/A Snow Light Snow
4:55 AM 34.2 °F 29.0 °F 34.0 °F 99% 29.92 in 2.5 mi WNW 5.8 mph - N/A Rain Light Rain
5:14 AM 33.8 °F 26.4 °F 33.8 °F 100% 29.92 in 7.0 mi West 9.2 mph 18.4 mph N/A   Overcast
5:35 AM 33.4 °F 25.4 °F 32.9 °F 98% 29.92 in 10.0 mi West 10.4 mph 17.3 mph N/A   Overcast
5:55 AM 33.4 °F 26.6 °F 32.9 °F 98% 29.92 in 10.0 mi West 8.1 mph 16.1 mph N/A   Mostly Cloudy
6:14 AM 33.6 °F 26.2 °F 32.9 °F 97% 29.92 in 10.0 mi West 9.2 mph - N/A   Overcast
6:35 AM 33.6 °F 26.2 °F 32.9 °F 97% 29.93 in 10.0 mi West 9.2 mph 18.4 mph N/A   Overcast
6:55 AM 33.8 °F 27.0 °F 33.1 °F 97% 29.93 in 10.0 mi WNW 8.1 mph - N/A   Overcast
7:15 AM 34.0 °F 27.2 °F 33.1 °F 96% 29.94 in 10.0 mi West 8.1 mph - N/A   Overcast
7:35 AM 34.0 °F 24.2 °F 32.9 °F 96% 29.93 in 10.0 mi West 15.0 mph 20.7 mph N/A   Scattered Clouds
7:55 AM 35.6 °F 28.0 °F 33.8 °F 93% 29.94 in 10.0 mi WNW 10.4 mph 23.0 mph N/A   Scattered Clouds
8:15 AM 35.6 °F 27.1 °F 33.4 °F 92% 29.93 in 10.0 mi West 12.7 mph - N/A   Mostly Cloudy
8:35 AM 36.1 °F 28.2 °F 33.4 °F 90% 29.94 in 10.0 mi West 11.5 mph 18.4 mph N/A   Overcast
8:54 AM 36.9 °F 28.2 °F 33.8 °F 89% 29.94 in 10.0 mi West 13.8 mph 20.7 mph N/A   Overcast
9:15 AM 37.6 °F 30.5 °F 33.3 °F 84% 29.95 in 10.0 mi WNW 10.4 mph 19.6 mph N/A   Mostly Cloudy
9:34 AM 39.0 °F 31.0 °F 33.4 °F 80% 29.96 in 10.0 mi West 13.8 mph 23.0 mph N/A   Mostly Cloudy
9:55 AM 39.0 °F 31.0 °F 32.4 °F 77% 29.96 in 10.0 mi WNW 13.8 mph 21.9 mph N/A   Mostly Cloudy
10:15 AM 41.5 °F 34.2 °F 34.3 °F 76% 29.97 in 10.0 mi NW 13.8 mph 20.7 mph N/A   Scattered Clouds
10:35 AM 39.2 °F 32.5 °F 34.3 °F 83% 29.97 in 10.0 mi West 10.4 mph 18.4 mph N/A   Mostly Cloudy
10:55 AM 41.2 °F 35.5 °F 35.8 °F 81% 29.96 in 10.0 mi WNW 9.2 mph - N/A   Scattered Clouds
11:15 AM 40.3 °F 33.9 °F 34.3 °F 79% 29.97 in 10.0 mi West 10.4 mph 17.3 mph N/A   Mostly Cloudy
11:35 AM 41.0 °F 34.3 °F 35.8 °F 82% 29.97 in 7.0 mi WNW 11.5 mph - N/A Rain Light Rain
11:54 AM 41.2 °F 34.5 °F 35.8 °F 81% 29.97 in 7.0 mi NNW 11.5 mph - N/A   Overcast
12:15 PM 40.8 °F 35.0 °F 35.6 °F 82% 29.97 in 10.0 mi NW 9.2 mph - N/A Rain Light Rain
12:35 PM 40.3 °F 34.9 °F 34.9 °F 81% 29.97 in 10.0 mi NW 8.1 mph 18.4 mph N/A   Overcast
12:54 PM 42.1 °F 36.1 °F 35.6 °F 78% 29.97 in 10.0 mi NNW 10.4 mph 17.3 mph N/A   Overcast
1:15 PM 43.0 °F 37.7 °F 36.7 °F 78% 29.97 in 10.0 mi NNW 9.2 mph 18.4 mph N/A   Overcast
1:34 PM 43.2 °F 37.4 °F 36.9 °F 78% 29.97 in 10.0 mi NW 10.4 mph - N/A   Overcast
1:55 PM 42.3 °F 37.3 °F 35.6 °F 77% 29.98 in 10.0 mi NNW 8.1 mph - N/A   Overcast
2:15 PM 43.9 °F 38.8 °F 36.0 °F 74% 29.97 in 10.0 mi NNW 9.2 mph - N/A   Overcast
2:35 PM 45.5 °F 39.9 °F 35.4 °F 68% 29.98 in 10.0 mi WNW 11.5 mph 18.4 mph N/A   Overcast
2:55 PM 43.7 °F 38.6 °F 35.1 °F 72% 29.97 in 10.0 mi NW 9.2 mph 18.4 mph N/A   Overcast
3:14 PM 43.3 °F 38.6 °F 35.4 °F 74% 29.98 in 10.0 mi NNW 8.1 mph - N/A   Overcast
3:35 PM 45.1 °F 40.3 °F 34.3 °F 66% 29.99 in 10.0 mi West 9.2 mph - N/A   Overcast
3:55 PM 45.7 °F 40.2 °F 34.2 °F 64% 29.99 in 10.0 mi WNW 11.5 mph - N/A   Overcast
4:15 PM 46.6 °F - 34.5 °F 63% 29.98 in 10.0 mi West 8.1 mph - N/A   Overcast
4:35 PM 46.4 °F 41.1 °F 34.2 °F 62% 29.98 in 10.0 mi West 11.5 mph - N/A   Overcast
4:54 PM 45.9 °F 40.4 °F 34.3 °F 64% 29.99 in 10.0 mi West 11.5 mph - N/A   Overcast
5:15 PM 45.3 °F 40.1 °F 33.4 °F 63% 29.99 in 10.0 mi West 10.4 mph 16.1 mph N/A   Overcast
5:35 PM 44.6 °F 40.2 °F 33.1 °F 64% 30.00 in 10.0 mi West 8.1 mph - N/A   Overcast
5:55 PM 44.6 °F 39.2 °F 33.1 °F 64% 30.00 in 10.0 mi West 10.4 mph 16.1 mph N/A   Overcast
6:15 PM 44.6 °F 40.2 °F 32.9 °F 64% 30.00 in 10.0 mi WNW 8.1 mph - N/A   Overcast
6:34 PM 43.9 °F 39.9 °F 33.4 °F 67% 30.01 in 10.0 mi WNW 6.9 mph - N/A   Overcast
6:55 PM 43.7 °F 38.6 °F 33.8 °F 68% 30.01 in 10.0 mi West 9.2 mph - N/A   Overcast
7:15 PM 42.8 °F 38.6 °F 34.5 °F 73% 30.02 in 10.0 mi WNW 6.9 mph - N/A   Overcast
7:35 PM 42.1 °F 38.4 °F 34.3 °F 74% 30.02 in 10.0 mi West 5.8 mph - N/A Rain Light Rain
7:55 PM 42.1 °F 37.7 °F 33.8 °F 72% 30.02 in 10.0 mi West 6.9 mph - N/A   Overcast
8:14 PM 41.4 °F 36.8 °F 34.5 °F 77% 30.02 in 7.0 mi West 6.9 mph - N/A Rain Light Rain
8:35 PM 41.4 °F 38.4 °F 34.3 °F 76% 30.02 in 10.0 mi West 4.6 mph - N/A Rain Light Rain
8:55 PM 41.0 °F 39.0 °F 34.2 °F 77% 30.03 in 10.0 mi WNW 3.5 mph - N/A   Mostly Cloudy
9:15 PM 40.1 °F 36.9 °F 33.1 °F 76% 30.03 in 10.0 mi West 4.6 mph - N/A   Scattered Clouds
9:35 PM 39.9 °F 37.8 °F 33.1 °F 77% 30.04 in 10.0 mi WNW 3.5 mph - N/A   Scattered Clouds
9:54 PM 39.6 °F 37.4 °F 33.6 °F 79% 30.04 in 10.0 mi West 3.5 mph - N/A   Mostly Cloudy
10:15 PM 40.1 °F - 33.8 °F 78% 30.05 in 10.0 mi Calm Calm - N/A   Overcast
10:34 PM 40.1 °F 36.9 °F 33.6 °F 78% 30.05 in 10.0 mi West 4.6 mph - N/A   Overcast
10:55 PM 39.6 °F 36.3 °F 33.1 °F 78% 30.04 in 10.0 mi West 4.6 mph - N/A   Overcast
11:15 PM 39.0 °F 36.8 °F 32.9 °F 79% 30.04 in 10.0 mi West 3.5 mph - N/A   Mostly Cloudy
11:35 PM 37.9 °F - 32.9 °F 82% 30.04 in 10.0 mi Calm Calm - N/A   Mostly Cloudy
11:54 PM 36.3 °F 31.6 °F 33.3 °F 89% 30.04 in 10.0 mi NNW 5.8 mph - N/A   Scattered Clouds